Orbital Elements at Epoch 2459200.5 (2020-Dec-17.0) TDB
Reference: JPL 30 (heliocentric ecliptic J2000)
Element | Value | Uncertainty (1-sigma) | Units |
e | .1126434896162837 | 3.1332e-08 | |
a | 2.572569618530918 | 1.0544e-08 | au |
q | 2.282786399418763 | 7.9905e-08 | au |
i | 3.737744979808843 | 3.3336e-06 | deg |
node | 123.8778632714896 | 6.7739e-05 | deg |
peri | 346.0228930685762 | 7.0663e-05 | deg |
M | 219.8256318219098 | 2.1194e-05 | deg |
tp | 2459787.333959319955 (2022-Jul-26.83395932) | 8.9955e-05 | TDB |
period | 1507.124505721187 4.13 | 9.2653e-06 2.537e-08 | d yr |
n | .2388654677389997 | 1.4685e-09 | deg/d |
Q | 2.862352837643072 | 1.1731e-08 | au |
|
| | Orbit Determination Parameters
Additional Information
|